Вернуться в каталог

STARLINK-5171

АктивенСвязьVLEO
NORAD 54077·PAYLOAD·🇺🇸 United States

Запущен Oct 20, 2022 с Cape Canaveral Space Force Station

Loading…

Ближайшие Пролёты (ближайшие 24 часа)

TLE

СвежийSource: CelesTrak SupGP

Эпоха: Sep 15, 2026, 01:36 UTC

1 54077C 22136AC  26258.06715278 -.00018695  00000+0 -11727-2 0  2584
2 54077  53.1588 188.9788 0001449  89.3175  33.5593 15.08833353    13

Отслеживайте STARLINK-5171 в реальном времени с AllMySat

Download on the App Store